This is the latest recevied weather packets stored in our database for station/object JF2ZGN-13. If no packets are shown the sender has not sent any weather packets the latest 10 day(s).
| Time | Temp. | Humidity | Pressure | Rain* | Wind** | Luminosity | Snow |
|---|---|---|---|---|---|---|---|
| 1787529296 | 23.33° C | 82% | 913.3 hPa | 0 mm | - | - | - |
| 1787528696 | 22.78° C | 82% | 913.1 hPa | 0 mm | - | - | - |
| 1787528096 | 22.78° C | 81% | 913 hPa | 0 mm | - | - | - |
| 1787527495 | 22.78° C | 78% | 913 hPa | 0 mm | - | - | - |
| 1787526894 | 22.78° C | 77% | 913 hPa | 0 mm | - | - | - |
| 1787526294 | 22.78° C | 75% | 912.8 hPa | 0 mm | - | - | - |
| 1787525693 | 22.78° C | 73% | 912.8 hPa | 0 mm | - | - | - |
| 1787525093 | 22.22° C | 73% | 912.8 hPa | 0 mm | - | - | - |
| 1787524493 | 22.22° C | 73% | 912.6 hPa | 0 mm | - | - | - |
| 1787523892 | 22.22° C | 73% | 912.8 hPa | 0 mm | - | - | - |
| 1787523293 | 21.67° C | 72% | 912.8 hPa | 0 mm | - | - | - |
| 1787522691 | 20.56° C | 69% | 912.6 hPa | 0 mm | - | - | - |
| 1787522090 | 20° C | 67% | 912.6 hPa | 0 mm | - | - | - |
| 1787521490 | 19.44° C | 45% | 912.6 hPa | 0 mm | - | - | - |
| 1787520890 | 19.44° C | 53% | 912.6 hPa | 0 mm | - | - | - |
| 1787520289 | 19.44° C | 54% | 912.5 hPa | 0 mm | - | - | - |
| 1787519689 | 19.44° C | 52% | 912.5 hPa | 0 mm | - | - | - |
| 1787519088 | 19.44° C | 53% | 912.5 hPa | 0 mm | - | - | - |
| 1787518488 | 19.44° C | 53% | 912.4 hPa | 0 mm | - | - | - |
| 1787517287 | 19.44° C | 53% | 912.3 hPa | 0 mm | - | - | - |
| 1787516687 | 19.44° C | 54% | 912.2 hPa | 0 mm | - | - | - |
| 1787516086 | 19.44° C | 55% | 912.2 hPa | 0 mm | - | - | - |
| 1787515485 | 19.44° C | 55% | 912.2 hPa | 0 mm | - | - | - |
| 1787514885 | 19.44° C | 55% | 912.1 hPa | 0 mm | - | - | - |
| 1787514285 | 19.44° C | 54% | 912.2 hPa | 0 mm | - | - | - |
* Rain since midnight (hover to see other rain measurements)
** Current wind speed in m/s (hover to see current wind gust speed)